timestamp,surface_pressure_avg,surface_temp_avg,battery_voltage,lat,long
2024-03-20 00:09:01+00:00,254.5181,1.7,11.61,47.84626,-54.09684
2024-03-20 00:19:00+00:00,266.9831,1.7,11.61,47.84626,-54.09684
2024-03-20 00:29:00+00:00,267.3431,1.7,11.61,47.84626,-54.09684
2024-03-20 00:39:00+00:00,244.3631,1.7,11.61,47.84626,-54.09684
2024-03-20 00:49:00+00:00,240.7598,1.7,11.61,47.84626,-54.09684
2024-03-20 00:59:00+00:00,265.4398,1.7,11.61,47.84626,-54.09684
2024-03-20 01:09:00+00:00,264.4664,1.7,11.61,47.84626,-54.09684
2024-03-20 01:19:00+00:00,245.1598,1.7,11.61,47.84626,-54.09684
2024-03-20 01:29:00+00:00,254.2698,1.7,11.61,47.84626,-54.09684
2024-03-20 01:39:00+00:00,275.908,1.69,11.61,47.84626,-54.09684
2024-03-20 01:49:00+00:00,271.4381,1.7,11.61,47.84626,-54.09684
2024-03-20 01:59:00+00:00,250.4464,1.7,11.61,47.84626,-54.09684
2024-03-20 02:09:00+00:00,258.683,1.7,11.61,47.84626,-54.09684
2024-03-20 02:19:00+00:00,267.7897,1.6,11.61,47.84626,-54.09684
2024-03-20 02:29:00+00:00,257.1647,1.65,11.61,47.84626,-54.09684
2024-03-20 02:39:00+00:00,248.3248,1.7,11.61,47.84626,-54.09684
2024-03-20 02:49:00+00:00,263.9532,1.6,11.61,47.84626,-54.09684
2024-03-20 02:59:00+00:00,275.8764,1.5,11.61,47.84626,-54.09684
2024-03-20 03:09:00+00:00,265.0914,1.63,11.61,47.84626,-54.09684
2024-03-20 03:19:00+00:00,244.2031,1.7,11.61,47.84626,-54.09684
2024-03-20 03:29:00+00:00,252.7247,1.6,11.61,47.84626,-54.09684
2024-03-20 03:39:00+00:00,268.7831,1.6,11.61,47.84626,-54.09684
2024-03-20 03:49:00+00:00,262.0664,1.67,11.61,47.84626,-54.09684
2024-03-20 03:59:00+00:00,244.3064,1.7,11.61,47.84626,-54.09684
2024-03-20 04:09:00+00:00,260.4147,1.6,11.61,47.84626,-54.09684
2024-03-20 04:19:00+00:00,276.9664,1.5,11.61,47.84626,-54.09684
2024-03-20 04:29:00+00:00,272.8065,1.65,11.61,47.84626,-54.09684
2024-03-20 04:39:00+00:00,265.5114,1.7,11.61,47.84626,-54.09684
2024-03-20 04:49:00+00:00,277.4247,1.58,11.61,47.84626,-54.09684
2024-03-20 04:59:00+00:00,279.9313,1.59,11.61,47.84626,-54.09684
2024-03-20 05:09:00+00:00,272.6848,1.67,11.61,47.84626,-54.09684
2024-03-20 05:19:00+00:00,285.6114,1.5,11.61,47.84626,-54.09684
2024-03-20 05:29:00+00:00,292.233,1.46,11.61,47.84626,-54.09684
2024-03-20 05:39:00+00:00,283.5331,1.6,11.61,47.84626,-54.09684
2024-03-20 05:49:00+00:00,286.5797,1.65,11.61,47.84626,-54.09684
2024-03-20 05:59:00+00:00,310.6963,1.6,11.61,47.84626,-54.09684
2024-03-20 06:09:00+00:00,314.0197,1.66,11.61,47.84626,-54.09684
2024-03-20 06:19:00+00:00,299.543,1.66,11.61,47.84626,-54.09684
2024-03-20 06:29:00+00:00,308.5497,1.6,11.61,47.84626,-54.09684
2024-03-20 06:39:00+00:00,324.848,1.6,11.61,47.84626,-54.09684
2024-03-20 06:49:00+00:00,317.3046,1.6,11.61,47.84626,-54.09684
2024-03-20 06:59:00+00:00,307.7764,1.6,11.61,47.84626,-54.09684
2024-03-20 07:09:00+00:00,324.363,1.5,11.61,47.84626,-54.09684
2024-03-20 07:19:00+00:00,335.923,1.5,11.61,47.84626,-54.09684
2024-03-20 07:29:00+00:00,328.7847,1.56,11.61,47.84626,-54.09684
2024-03-20 07:39:00+00:00,329.1647,1.6,11.61,47.84626,-54.09684
2024-03-20 07:49:00+00:00,347.5345,1.6,11.61,47.84626,-54.09684
2024-03-20 07:59:00+00:00,353.6413,1.6,11.61,47.84626,-54.09684
2024-03-20 08:09:00+00:00,338.6662,1.6,11.61,47.84626,-54.09684
2024-03-20 08:19:00+00:00,340.7446,1.5,11.61,47.84626,-54.09684
2024-03-20 08:29:00+00:00,358.48800000000006,1.4,11.61,47.84626,-54.09684
2024-03-20 08:39:00+00:00,359.5229,1.5,11.61,47.84626,-54.09684
2024-03-20 08:49:00+00:00,347.0246,1.58,11.61,47.84626,-54.09684
2024-03-20 08:59:00+00:00,348.7246,1.6,11.61,47.84626,-54.09684
2024-03-20 09:09:00+00:00,357.6046,1.5,11.61,47.84626,-54.09684
2024-03-20 09:19:00+00:00,359.3447,1.59,11.61,47.84626,-54.09684
2024-03-20 09:29:00+00:00,348.9696,1.6,11.61,47.84626,-54.09684
2024-03-20 09:39:00+00:00,344.0046,1.5,11.61,47.84626,-54.09684
2024-03-20 09:49:00+00:00,339.6514,1.54,11.61,47.84626,-54.09684
2024-03-20 09:59:00+00:00,334.7897,1.5,11.61,47.84626,-54.09684
2024-03-20 10:09:00+00:00,322.8263,1.57,11.61,47.84626,-54.09684
2024-03-20 10:19:00+00:00,315.938,1.6,11.7,47.84626,-54.09684
2024-03-20 10:29:00+00:00,317.5031,1.6,11.7,47.84626,-54.09684
2024-03-20 10:39:00+00:00,310.2347,1.6,11.7,47.84626,-54.09684
2024-03-20 10:49:00+00:00,305.218,1.6,11.7,47.84626,-54.09684
2024-03-20 10:59:00+00:00,301.8613,1.6,11.7,47.84626,-54.09684
2024-03-20 11:09:00+00:00,296.968,1.59,11.7,47.84626,-54.09684
2024-03-20 11:19:00+00:00,291.0247,1.6,11.93,47.84626,-54.09684
2024-03-20 11:29:00+00:00,294.013,1.6,11.93,47.84626,-54.09684
2024-03-20 11:39:00+00:00,289.438,1.6,11.93,47.84626,-54.09684
2024-03-20 11:49:00+00:00,277.6764,1.6,11.93,47.84626,-54.09684
2024-03-20 11:59:00+00:00,272.3314,1.6,11.93,47.84626,-54.09684
2024-03-20 12:09:00+00:00,280.6664,1.6,11.93,47.84626,-54.09684
2024-03-20 12:19:00+00:00,279.453,1.6,12.17,47.84626,-54.09684
2024-03-20 12:29:00+00:00,272.9464,1.6,12.17,47.84626,-54.09684
2024-03-20 12:39:00+00:00,269.4648,1.6,12.17,47.84626,-54.09684
2024-03-20 12:49:00+00:00,273.6164,1.6,12.17,47.84626,-54.09684
2024-03-20 12:59:00+00:00,274.908,1.6,12.17,47.84626,-54.09684
2024-03-20 13:09:00+00:00,264.5447,1.6,12.17,47.84626,-54.09684
2024-03-20 13:19:00+00:00,253.3081,1.6,12.17,47.84626,-54.09684
2024-03-20 13:29:00+00:00,253.1964,1.6,12.17,47.84626,-54.09684
2024-03-20 13:39:00+00:00,259.5498,1.6,12.17,47.84626,-54.09684
2024-03-20 13:49:00+00:00,253.1697,1.6,12.17,47.84626,-54.09684
2024-03-20 13:59:00+00:00,242.9881,1.6,12.17,47.84626,-54.09684
2024-03-20 14:09:00+00:00,250.2914,1.6,12.17,47.84626,-54.09684
2024-03-20 14:19:00+00:00,259.7281,1.6,12.01,47.84626,-54.09684
2024-03-20 14:29:00+00:00,248.6464,1.6,12.01,47.84626,-54.09684
2024-03-20 14:39:00+00:00,237.9148,1.63,12.01,47.84626,-54.09684
2024-03-20 14:49:00+00:00,251.4331,1.66,12.01,47.84626,-54.09684
2024-03-20 14:59:00+00:00,249.9014,1.69,12.01,47.84626,-54.09684
2024-03-20 15:09:00+00:00,228.2448,1.8,12.01,47.84626,-54.09684
2024-03-20 15:19:00+00:00,224.6964,1.89,12.09,47.84626,-54.09684
2024-03-20 15:29:00+00:00,240.4781,1.77,12.09,47.84626,-54.09684
2024-03-20 15:39:00+00:00,237.9931,1.8,12.09,47.84626,-54.09684
2024-03-20 15:49:00+00:00,231.3031,1.9,12.09,47.84626,-54.09684
2024-03-20 15:59:00+00:00,232.0064,1.9,12.09,47.84626,-54.09684
2024-03-20 16:09:00+00:00,232.593,1.8,12.09,47.84626,-54.09684
2024-03-20 16:19:00+00:00,232.4114,1.7,12.17,47.84626,-54.09684
2024-03-20 16:29:00+00:00,233.7615,1.7,12.17,47.84626,-54.09684
2024-03-20 16:39:00+00:00,233.5864,1.8,12.17,47.84626,-54.09684
2024-03-20 16:49:00+00:00,228.1564,1.8,12.17,47.84626,-54.09684
2024-03-20 16:59:00+00:00,231.1364,1.8,12.17,47.84626,-54.09684
2024-03-20 17:09:00+00:00,244.9814,1.9,12.17,47.84626,-54.09684
2024-03-20 17:19:00+00:00,249.1031,1.9,11.93,47.84626,-54.09684
2024-03-20 17:29:00+00:00,240.6548,1.92,11.93,47.84626,-54.09684
2024-03-20 17:39:00+00:00,246.1631,2.07,11.93,47.84626,-54.09684
2024-03-20 17:49:00+00:00,262.5497,2.1,11.93,47.84626,-54.09684
2024-03-20 17:59:00+00:00,264.3614,2.2,11.93,47.84626,-54.09684
2024-03-20 18:09:00+00:00,255.3597,2.2,11.93,47.84626,-54.09684
2024-03-20 18:19:00+00:00,265.5464,2.25,11.93,47.84626,-54.09684
2024-03-20 18:29:00+00:00,276.3314,2.3,11.93,47.84626,-54.09684
2024-03-20 18:39:00+00:00,269.2597,2.3,11.93,47.84626,-54.09684
2024-03-20 18:49:00+00:00,265.0614,2.3,11.93,47.84626,-54.09684
2024-03-20 18:59:00+00:00,281.243,2.3,11.93,47.84626,-54.09684
2024-03-20 19:09:00+00:00,283.1398,2.3,11.93,47.84626,-54.09684
2024-03-20 19:19:00+00:00,274.9781,2.3,11.93,47.84626,-54.09684
2024-03-20 19:29:00+00:00,280.2964,2.2,11.93,47.84626,-54.09684
2024-03-20 19:39:00+00:00,301.2247,2.0,11.93,47.84626,-54.09684
2024-03-20 19:49:00+00:00,306.4113,2.03,11.93,47.84626,-54.09684
2024-03-20 19:59:00+00:00,296.2781,2.14,11.93,47.84626,-54.09684
2024-03-20 20:09:00+00:00,300.778,2.1,11.93,47.84626,-54.09684
2024-03-20 20:19:00+00:00,313.0914,1.93,11.86,47.84626,-54.09684
2024-03-20 20:29:00+00:00,310.2263,2.11,11.86,47.84626,-54.09684
2024-03-20 20:39:00+00:00,306.0513,2.2,11.86,47.84626,-54.09684
2024-03-20 20:49:00+00:00,316.0197,1.65,11.86,47.84626,-54.09684
2024-03-20 20:59:00+00:00,321.6264,1.54,11.86,47.84626,-54.09684
2024-03-20 21:09:00+00:00,311.6747,2.15,11.86,47.84626,-54.09684
2024-03-20 21:19:00+00:00,315.173,2.0,11.77,47.84626,-54.09684
2024-03-20 21:29:00+00:00,319.7913,1.8,11.77,47.84626,-54.09684
2024-03-20 21:39:00+00:00,312.783,2.05,11.77,47.84626,-54.09684
2024-03-20 21:49:00+00:00,309.3414,2.15,11.77,47.84626,-54.09684
2024-03-20 21:59:00+00:00,314.6863,2.1,11.77,47.84626,-54.09684
2024-03-20 22:09:00+00:00,309.798,2.19,11.77,47.84626,-54.09684
2024-03-20 22:19:00+00:00,298.7697,2.17,11.77,47.84626,-54.09684
2024-03-20 22:29:00+00:00,299.1063,2.11,11.77,47.84626,-54.09684
2024-03-20 22:39:00+00:00,296.8414,2.1,11.77,47.84626,-54.09684
2024-03-20 22:49:00+00:00,286.483,2.1,11.77,47.84626,-54.09684
2024-03-20 22:59:00+00:00,283.683,2.1,11.77,47.84626,-54.09684
2024-03-20 23:09:00+00:00,281.7147,2.1,11.77,47.84626,-54.09684
2024-03-20 23:19:01+00:00,272.5781,2.1,11.77,47.84626,-54.09684
2024-03-20 23:29:01+00:00,264.6631,2.1,11.77,47.84626,-54.09684
2024-03-20 23:39:01+00:00,267.0931,2.1,11.77,47.84626,-54.09684
2024-03-20 23:49:01+00:00,268.2414,2.1,11.77,47.84626,-54.09684
2024-03-20 23:59:01+00:00,262.5898,2.06,11.77,47.84626,-54.09684
